TimePDT,TemperatureF,Dew PointF,Humidity,Sea Level PressureIn,VisibilityMPH,Wind Direction,Wind SpeedMPH,Gust SpeedMPH,PrecipitationIn,Events,Conditions,WindDirDegrees,DateUTC
12:15 AM,51.8,37.4,58,29.83,10.0,SSW,8.1,-,N/A,,Mostly Cloudy,200,2012-10-22 07:15:00
1:15 AM,48.2,44.6,87,29.84,5.0,SE,10.4,-,N/A,,Overcast,130,2012-10-22 08:15:00
1:35 AM,46.4,44.6,93,29.84,4.0,SE,10.4,-,N/A,,Mostly Cloudy,130,2012-10-22 08:35:00
2:15 AM,46.4,44.6,93,29.86,3.0,SE,8.1,-,N/A,,Overcast,130,2012-10-22 09:15:00
2:55 AM,46.4,44.6,93,29.83,4.0,SE,9.2,-,N/A,,Overcast,130,2012-10-22 09:55:00
3:35 AM,46.4,44.6,93,29.83,3.0,SE,9.2,-,N/A,,Overcast,140,2012-10-22 10:35:00
4:35 AM,46.4,44.6,93,29.79,3.0,SE,18.4,24.2,N/A,,Overcast,130,2012-10-22 11:35:00
5:55 AM,46.4,44.6,93,29.77,4.0,SE,12.7,20.7,N/A,,Overcast,140,2012-10-22 12:55:00
6:35 AM,46.4,44.6,93,29.77,4.0,SE,12.7,19.6,N/A,,Overcast,140,2012-10-22 13:35:00
6:55 AM,46.4,44.6,93,29.77,5.0,SSE,12.7,-,N/A,,Mostly Cloudy,150,2012-10-22 13:55:00
7:35 AM,46.4,46.4,100,29.76,2.0,SSE,8.1,-,N/A,,Overcast,150,2012-10-22 14:35:00
7:55 AM,46.4,44.6,93,29.75,2.5,SE,11.5,16.1,N/A,,Overcast,140,2012-10-22 14:55:00
8:15 AM,46.4,44.6,93,29.79,2.0,SSW,5.8,-,N/A,,Overcast,200,2012-10-22 15:15:00
8:35 AM,46.4,44.6,93,29.79,1.5,Calm,Calm,-,N/A,,Overcast,0,2012-10-22 15:35:00
8:55 AM,46.4,46.4,100,29.80,1.8,Calm,Calm,-,N/A,,Overcast,0,2012-10-22 15:55:00
9:15 AM,46.4,46.4,100,29.80,1.5,South,4.6,-,N/A,,Overcast,170,2012-10-22 16:15:00
9:55 AM,46.4,44.6,93,29.82,1.0,South,15.0,26.5,N/A,,Overcast,180,2012-10-22 16:55:00
10:15 AM,46.4,46.4,100,29.83,1.2,South,12.7,18.4,N/A,,Overcast,190,2012-10-22 17:15:00
10:35 AM,46.4,46.4,100,29.82,2.0,SSE,18.4,24.2,N/A,,Overcast,160,2012-10-22 17:35:00
10:55 AM,48.2,46.4,93,29.84,2.5,South,16.1,23.0,N/A,,Overcast,180,2012-10-22 17:55:00
11:15 AM,48.2,46.4,93,29.85,2.0,South,9.2,19.6,N/A,,Overcast,190,2012-10-22 18:15:00
11:35 AM,48.2,46.4,93,29.84,1.0,SSW,10.4,17.3,N/A,,Overcast,200,2012-10-22 18:35:00
11:55 AM,48.2,46.4,93,29.84,1.8,SSW,13.8,23.0,N/A,,Overcast,200,2012-10-22 18:55:00
12:15 PM,48.2,46.4,93,29.84,4.0,South,15.0,23.0,N/A,,Overcast,180,2012-10-22 19:15:00
1:15 PM,48.2,48.2,100,29.85,3.0,South,17.3,25.3,N/A,,Overcast,190,2012-10-22 20:15:00
1:35 PM,48.2,46.4,93,29.85,5.0,South,16.1,26.5,N/A,,Overcast,190,2012-10-22 20:35:00
2:15 PM,48.2,48.2,100,29.85,9.0,South,10.4,21.9,N/A,,Overcast,180,2012-10-22 21:15:00
2:35 PM,50.0,48.2,94,29.85,8.0,South,13.8,21.9,N/A,,Overcast,190,2012-10-22 21:35:00
2:55 PM,50.0,48.2,94,29.85,10.0,South,11.5,16.1,N/A,,Overcast,170,2012-10-22 21:55:00
3:15 PM,51.8,48.2,88,29.85,10.0,South,12.7,18.4,N/A,,Overcast,170,2012-10-22 22:15:00
3:35 PM,51.8,48.2,88,29.85,10.0,South,11.5,-,N/A,,Overcast,180,2012-10-22 22:35:00
3:55 PM,51.8,48.2,88,29.85,10.0,SSE,11.5,18.4,N/A,,Overcast,160,2012-10-22 22:55:00
4:15 PM,51.8,48.2,88,29.83,10.0,SSE,10.4,20.7,N/A,,Overcast,160,2012-10-22 23:15:00
4:35 PM,51.8,46.4,82,29.84,10.0,South,11.5,17.3,N/A,,Overcast,170,2012-10-22 23:35:00
4:55 PM,51.8,48.2,88,29.84,9.0,SSE,9.2,-,N/A,,Overcast,160,2012-10-22 23:55:00
5:15 PM,51.8,46.4,82,29.83,5.0,South,17.3,23.0,N/A,,Mostly Cloudy,170,2012-10-23 00:15:00
5:35 PM,50.0,48.2,94,29.83,3.0,SSW,13.8,18.4,N/A,,Mostly Cloudy,200,2012-10-23 00:35:00
5:55 PM,51.8,48.2,88,29.85,4.0,SSW,10.4,-,N/A,,Mostly Cloudy,210,2012-10-23 00:55:00
6:15 PM,51.8,48.2,88,29.85,10.0,South,12.7,17.3,N/A,,Mostly Cloudy,190,2012-10-23 01:15:00
7:35 PM,50.0,48.2,94,29.87,10.0,SSW,6.9,-,N/A,,Mostly Cloudy,210,2012-10-23 02:35:00
7:55 PM,50.0,46.4,87,29.88,10.0,SSW,6.9,-,0.01,,Overcast,200,2012-10-23 02:55:00
8:15 PM,50.0,46.4,87,29.89,10.0,SSW,8.1,-,N/A,,Mostly Cloudy,200,2012-10-23 03:15:00
8:35 PM,50.0,46.4,87,29.89,10.0,South,4.6,-,N/A,,Overcast,190,2012-10-23 03:35:00
8:55 PM,50.0,46.4,87,29.90,10.0,SSW,4.6,-,N/A,,Mostly Cloudy,210,2012-10-23 03:55:00
9:15 PM,50.0,46.4,87,29.90,10.0,SSW,5.8,-,N/A,,Mostly Cloudy,200,2012-10-23 04:15:00
9:35 PM,50.0,46.4,87,29.90,10.0,South,4.6,-,N/A,,Overcast,190,2012-10-23 04:35:00
9:55 PM,48.2,44.6,87,29.90,10.0,South,6.9,-,N/A,,Overcast,190,2012-10-23 04:55:00
10:15 PM,50.0,44.6,82,29.90,10.0,South,4.6,-,N/A,,Mostly Cloudy,180,2012-10-23 05:15:00
10:55 PM,48.2,44.6,87,29.91,10.0,SSW,9.2,-,0.01,,Overcast,200,2012-10-23 05:55:00